,,Stat6,,Stat2,,Stat8,,Stat9,,Stat10,,Wind1,,Wind1,
time,status,PA1M_AVG,status,PR1M_SUM,status,RH1M_AVG,status,SR1M_AVG,status,TA1M_AVG,status,W1dAve1m,status,W1sAve1m,
2008-12-05, 00:00:00,VALID,918.313,VALID,0,VALID,100,VALID,0.0339617,VALID,19.8281,VALID,65,VALID,0,
2008-12-05, 00:01:00,VALID,918.297,VALID,0,VALID,100,VALID,0.0169808,VALID,19.8321,VALID,65,VALID,0,
2008-12-05, 00:02:00,VALID,918.292,VALID,0,VALID,100,VALID,0.0169808,VALID,19.8356,VALID,85,VALID,0,
2008-12-05, 00:03:00,VALID,918.27,VALID,0,VALID,100,VALID,0.0169808,VALID,19.8291,VALID,124,VALID,0,
2008-12-05, 00:04:00,VALID,918.278,VALID,0,VALID,100,VALID,-0.0169808,VALID,19.8229,VALID,128,VALID,0,
2008-12-05, 00:05:00,VALID,918.279,VALID,0,VALID,100,VALID,0.0169808,VALID,19.8099,VALID,136,VALID,0,
2008-12-05, 00:06:00,VALID,918.271,VALID,0,VALID,100,VALID,0,VALID,19.8066,VALID,132,VALID,0,
2008-12-05, 00:07:00,VALID,918.283,VALID,0,VALID,100,VALID,0.0169808,VALID,19.8096,VALID,129,VALID,0.045277,
2008-12-05, 00:08:00,VALID,918.286,VALID,0,VALID,100,VALID,0.0169808,VALID,19.7961,VALID,136,VALID,0.0145349,
2008-12-05, 00:09:00,VALID,918.281,VALID,0,VALID,100,VALID,0.0169808,VALID,19.7999,VALID,136,VALID,0.000177557,
2008-12-05, 00:10:00,VALID,918.275,VALID,0,VALID,100,VALID,-0.0169808,VALID,19.8096,VALID,136,VALID,0.0394176,
2008-12-05, 00:11:00,VALID,918.28,VALID,0,VALID,100,VALID,0.0169808,VALID,19.7902,VALID,136,VALID,0,
2008-12-05, 00:12:00,VALID,918.252,VALID,0,VALID,100,VALID,0.0169808,VALID,19.7837,VALID,127,VALID,0.00111607,
2008-12-05, 00:13:00,VALID,918.235,VALID,0,VALID,100,VALID,0.0339617,VALID,19.7669,VALID,122,VALID,0.174851,
2008-12-05, 00:14:00,VALID,918.229,VALID,0,VALID,100,VALID,0.0339617,VALID,19.7674,VALID,122,VALID,0.0546875,
2008-12-05, 00:15:00,VALID,918.211,VALID,0,VALID,100,VALID,-0.0169808,VALID,19.7607,VALID,119,VALID,0.0552326,
2008-12-05, 00:16:00,VALID,918.191,VALID,0,VALID,100,VALID,0.0339617,VALID,19.7545,VALID,102,VALID,0,
2008-12-05, 00:17:00,VALID,918.181,VALID,0,VALID,100,VALID,0,VALID,19.7542,VALID,107,VALID,0,
2008-12-05, 00:18:00,VALID,918.173,VALID,0,VALID,100,VALID,0.0169808,VALID,19.7577,VALID,115,VALID,0,
2008-12-05, 00:19:00,VALID,918.169,VALID,0,VALID,100,VALID,0.0169808,VALID,19.7707,VALID,102,VALID,0,
2008-12-05, 00:20:00,VALID,918.16,VALID,0,VALID,100,VALID,0.0509425,VALID,19.7739,VALID,58,VALID,0,
2008-12-05, 00:21:00,VALID,918.151,VALID,0,VALID,100,VALID,0,VALID,19.7575,VALID,58,VALID,0,
2008-12-05, 00:22:00,VALID,918.156,VALID,0,VALID,100,VALID,-0.0169808,VALID,19.7672,VALID,58,VALID,0,
2008-12-05, 00:23:00,VALID,918.157,VALID,0,VALID,100,VALID,-0.0339617,VALID,19.7644,VALID,58,VALID,0,
2008-12-05, 00:24:00,VALID,918.144,VALID,0,VALID,100,VALID,0.0169808,VALID,19.7577,VALID,58,VALID,0,
2008-12-05, 00:25:00,VALID,918.151,VALID,0,VALID,100,VALID,-0.0339617,VALID,19.7542,VALID,58,VALID,0,
2008-12-05, 00:26:00,VALID,918.152,VALID,0,VALID,100,VALID,-0.0339617,VALID,19.742,VALID,58,VALID,0,
2008-12-05, 00:27:00,VALID,918.139,VALID,0,VALID,100,VALID,-0.0339617,VALID,19.7253,VALID,58,VALID,0,
2008-12-05, 00:28:00,VALID,918.147,VALID,0,VALID,100,VALID,-0.0679233,VALID,19.716,VALID,58,VALID,0,
2008-12-05, 00:29:00,VALID,918.153,VALID,0,VALID,100,VALID,0,VALID,19.7028,VALID,58,VALID,0,
2008-12-05, 00:30:00,VALID,918.148,VALID,0,VALID,100,VALID,-0.0509425,VALID,19.6936,VALID,58,VALID,0,
2008-12-05, 00:31:00,VALID,918.148,VALID,0,VALID,100,VALID,-0.0339617,VALID,19.6866,VALID,58,VALID,0,
2008-12-05, 00:32:00,VALID,918.151,VALID,0,VALID,100,VALID,-0.0339617,VALID,19.6704,VALID,58,VALID,0,
2008-12-05, 00:33:00,VALID,918.135,VALID,0,VALID,100,VALID,-0.0339617,VALID,19.6743,VALID,58,VALID,0,
2008-12-05, 00:34:00,VALID,918.131,VALID,0,VALID,100,VALID,-0.0509425,VALID,19.6806,VALID,58,VALID,0,
2008-12-05, 00:35:00,VALID,918.094,VALID,0,VALID,100,VALID,-0.0509425,VALID,19.6836,VALID,59,VALID,0,
2008-12-05, 00:36:00,VALID,918.094,VALID,0,VALID,100,VALID,-0.0509425,VALID,19.6773,VALID,64,VALID,0,
2008-12-05, 00:37:00,VALID,918.08,VALID,0,VALID,100,VALID,-0.0509425,VALID,19.6579,VALID,75,VALID,0,
2008-12-05, 00:38:00,VALID,918.06,VALID,0,VALID,100,VALID,-0.0509425,VALID,19.6676,VALID,77,VALID,0,
2008-12-05, 00:39:00,VALID,918.041,VALID,0,VALID,100,VALID,0,VALID,19.6803,VALID,77,VALID,0,
2008-12-05, 00:40:00,VALID,918.039,VALID,0,VALID,100,VALID,-0.0509425,VALID,19.6771,VALID,77,VALID,0,
2008-12-05, 00:41:00,VALID,918.026,VALID,0,VALID,100,VALID,-0.0169808,VALID,19.6771,VALID,77,VALID,0,
2008-12-05, 00:42:00,VALID,918.026,VALID,0,VALID,100,VALID,-0.0339617,VALID,19.6836,VALID,77,VALID,0,
2008-12-05, 00:43:00,VALID,918.022,VALID,0,VALID,100,VALID,-0.0169808,VALID,19.6871,VALID,77,VALID,0,
2008-12-05, 00:44:00,VALID,918.012,VALID,0,VALID,100,VALID,-0.0509425,VALID,19.7065,VALID,77,VALID,0,
2008-12-05, 00:45:00,VALID,918.006,VALID,0,VALID,100,VALID,-0.0339617,VALID,19.6928,VALID,81,VALID,0,
2008-12-05, 00:46:00,VALID,918.003,VALID,0,VALID,100,VALID,0,VALID,19.706,VALID,84,VALID,0,
2008-12-05, 00:47:00,VALID,917.987,VALID,0,VALID,100,VALID,-0.0169808,VALID,19.6961,VALID,84,VALID,0,
2008-12-05, 00:48:00,VALID,917.977,VALID,0,VALID,100,VALID,-0.0509425,VALID,19.7093,VALID,84,VALID,0,
2008-12-05, 00:49:00,VALID,917.971,VALID,0,VALID,100,VALID,-0.0169808,VALID,19.7125,VALID,84,VALID,0,
2008-12-05, 00:50:00,VALID,917.964,VALID,0,VALID,100,VALID,-0.0169808,VALID,19.7125,VALID,84,VALID,0,
2008-12-05, 00:51:00,VALID,917.944,VALID,0,VALID,100,VALID,0,VALID,19.6801,VALID,84,VALID,0,
2008-12-05, 00:52:00,VALID,917.921,VALID,0,VALID,100,VALID,0,VALID,19.6541,VALID,84,VALID,0,
2008-12-05, 00:53:00,VALID,917.9,VALID,0,VALID,100,VALID,-0.0509425,VALID,19.6446,VALID,84,VALID,0,
2008-12-05, 00:54:00,VALID,917.879,VALID,0,VALID,100,VALID,-0.0339617,VALID,19.6384,VALID,84,VALID,0,
2008-12-05, 00:55:00,VALID,917.865,VALID,0,VALID,100,VALID,-0.0339617,VALID,19.6282,VALID,84,VALID,0,
2008-12-05, 00:56:00,VALID,917.834,VALID,0,VALID,100,VALID,-0.0339617,VALID,19.6279,VALID,70,VALID,0,
2008-12-05, 00:57:00,VALID,917.814,VALID,0,VALID,100,VALID,0,VALID,19.6606,VALID,34,VALID,0,
2008-12-05, 00:58:00,VALID,917.784,VALID,0,VALID,100,VALID,0,VALID,19.6768,VALID,34,VALID,0,
2008-12-05, 00:59:00,VALID,917.765,VALID,0,VALID,100,VALID,0,VALID,19.6863,VALID,34,VALID,0,
2008-12-05, 01:00:00,VALID,917.755,VALID,0,VALID,100,VALID,0.0169808,VALID,19.6928,VALID,34,VALID,0,
2008-12-05, 01:01:00,VALID,917.739,VALID,0,VALID,100,VALID,0,VALID,19.6863,VALID,34,VALID,0,
2008-12-05, 01:02:00,VALID,917.731,VALID,0,VALID,100,VALID,-0.0169808,VALID,19.6866,VALID,34,VALID,0,
2008-12-05, 01:03:00,VALID,917.723,VALID,0,VALID,100,VALID,0,VALID,19.6961,VALID,34,VALID,0,
2008-12-05, 01:04:00,VALID,917.723,VALID,0,VALID,100,VALID,-0.0169808,VALID,19.7033,VALID,34,VALID,0,
2008-12-05, 01:05:00,VALID,917.726,VALID,0,VALID,100,VALID,-0.0509425,VALID,19.7025,VALID,34,VALID,0,
2008-12-05, 01:06:00,VALID,917.731,VALID,0,VALID,100,VALID,-0.0169808,VALID,19.703,VALID,34,VALID,0,
2008-12-05, 01:07:00,VALID,917.742,VALID,0,VALID,100,VALID,-0.0339617,VALID,19.719,VALID,34,VALID,0,
2008-12-05, 01:08:00,VALID,917.737,VALID,0,VALID,100,VALID,-0.0339617,VALID,19.7128,VALID,34,VALID,0,
2008-12-05, 01:09:00,VALID,917.754,VALID,0,VALID,100,VALID,-0.0169808,VALID,19.716,VALID,34,VALID,0,
2008-12-05, 01:10:00,VALID,917.76,VALID,0,VALID,100,VALID,-0.0169808,VALID,19.7123,VALID,34,VALID,0,
2008-12-05, 01:11:00,VALID,917.74,VALID,0,VALID,100,VALID,-0.0339617,VALID,19.7355,VALID,34,VALID,0,
2008-12-05, 01:12:00,VALID,917.722,VALID,0,VALID,100,VALID,-0.0169808,VALID,19.729,VALID,34,VALID,0,
2008-12-05, 01:13:00,VALID,917.719,VALID,0,VALID,100,VALID,-0.0339617,VALID,19.7158,VALID,34,VALID,0,
2008-12-05, 01:14:00,VALID,917.686,VALID,0,VALID,100,VALID,-0.0509425,VALID,19.719,VALID,34,VALID,0,
2008-12-05, 01:15:00,VALID,917.681,VALID,0,VALID,100,VALID,-0.0169808,VALID,19.735,VALID,34,VALID,0,
2008-12-05, 01:16:00,VALID,917.671,VALID,0,VALID,100,VALID,0.0169808,VALID,19.7679,VALID,34,VALID,0,
2008-12-05, 01:17:00,VALID,917.649,VALID,0,VALID,100,VALID,-0.0169808,VALID,19.7709,VALID,34,VALID,0,
2008-12-05, 01:18:00,VALID,917.653,VALID,0,VALID,100,VALID,-0.0169808,VALID,19.7774,VALID,33,VALID,0,
2008-12-05, 01:19:00,VALID,917.632,VALID,0,VALID,100,VALID,-0.0169808,VALID,19.732,VALID,33,VALID,0,
2008-12-05, 01:20:00,VALID,917.633,VALID,0,VALID,100,VALID,-0.0339617,VALID,19.7355,VALID,33,VALID,0,
2008-12-05, 01:21:00,VALID,917.621,VALID,0,VALID,100,VALID,-0.0169808,VALID,19.741,VALID,33,VALID,0,
2008-12-05, 01:22:00,VALID,917.611,VALID,0,VALID,100,VALID,-0.0509425,VALID,19.7293,VALID,33,VALID,0,
2008-12-05, 01:23:00,VALID,917.605,VALID,0,VALID,100,VALID,-0.118866,VALID,19.7308,VALID,33,VALID,0,
2008-12-05, 01:24:00,VALID,917.591,VALID,0,VALID,100,VALID,-0.101885,VALID,19.7135,VALID,33,VALID,0,
2008-12-05, 01:25:00,VALID,917.591,VALID,0,VALID,100,VALID,-0.101885,VALID,19.6748,VALID,33,VALID,0,
2008-12-05, 01:26:00,VALID,917.585,VALID,0,VALID,100,VALID,-0.101885,VALID,19.6232,VALID,33,VALID,0,
2008-12-05, 01:27:00,VALID,917.57,VALID,0,VALID,100,VALID,-0.118866,VALID,19.6069,VALID,33,VALID,0,
2008-12-05, 01:28:00,VALID,917.56,VALID,0,VALID,100,VALID,-0.152827,VALID,19.571,VALID,33,VALID,0,
2008-12-05, 01:29:00,VALID,917.555,VALID,0,VALID,100,VALID,-0.118866,VALID,19.555,VALID,33,VALID,0,
2008-12-05, 01:30:00,VALID,917.537,VALID,0,VALID,100,VALID,-0.101885,VALID,19.5089,VALID,33,VALID,0,
2008-12-05, 01:31:00,VALID,917.525,VALID,0,VALID,100,VALID,-0.135847,VALID,19.4964,VALID,33,VALID,0,
2008-12-05, 01:32:00,VALID,917.507,VALID,0,VALID,100,VALID,-0.152827,VALID,19.5258,VALID,33,VALID,0,
2008-12-05, 01:33:00,VALID,917.484,VALID,0,VALID,100,VALID,-0.169808,VALID,19.5463,VALID,33,VALID,0,
2008-12-05, 01:34:00,VALID,917.48,VALID,0,VALID,100,VALID,-0.118866,VALID,19.5615,VALID,33,VALID,0,
2008-12-05, 01:35:00,VALID,917.462,VALID,0,VALID,100,VALID,-0.101885,VALID,19.5807,VALID,33,VALID,0,
2008-12-05, 01:36:00,VALID,917.444,VALID,0,VALID,100,VALID,-0.118866,VALID,19.5905,VALID,33,VALID,0,
2008-12-05, 01:37:00,VALID,917.428,VALID,0,VALID,100,VALID,-0.101885,VALID,19.6194,VALID,33,VALID,0,
2008-12-05, 01:38:00,VALID,917.422,VALID,0,VALID,100,VALID,-0.101885,VALID,19.6294,VALID,32,VALID,0,
2008-12-05, 01:39:00,VALID,917.413,VALID,0,VALID,100,VALID,-0.118866,VALID,19.6394,VALID,31,VALID,0,
2008-12-05, 01:40:00,VALID,917.389,VALID,0,VALID,100,VALID,-0.101885,VALID,19.6294,VALID,31,VALID,0,
2008-12-05, 01:41:00,VALID,917.373,VALID,0,VALID,100,VALID,-0.101885,VALID,19.6491,VALID,31,VALID,0,
2008-12-05, 01:42:00,VALID,917.364,VALID,0,VALID,100,VALID,-0.0849042,VALID,19.6459,VALID,31,VALID,0,
2008-12-05, 01:43:00,VALID,917.349,VALID,0,VALID,100,VALID,-0.101885,VALID,19.6554,VALID,31,VALID,0,
2008-12-05, 01:44:00,VALID,917.33,VALID,0,VALID,100,VALID,-0.118866,VALID,19.6654,VALID,31,VALID,0,
2008-12-05, 01:45:00,VALID,917.312,VALID,0,VALID,100,VALID,-0.101885,VALID,19.6913,VALID,31,VALID,0,
2008-12-05, 01:46:00,VALID,917.298,VALID,0,VALID,100,VALID,-0.101885,VALID,19.6878,VALID,31,VALID,0,
2008-12-05, 01:47:00,VALID,917.286,VALID,0,VALID,100,VALID,-0.0849042,VALID,19.6778,VALID,31,VALID,0,
2008-12-05, 01:48:00,VALID,917.27,VALID,0,VALID,100,VALID,-0.118866,VALID,19.6688,VALID,31,VALID,0,
2008-12-05, 01:49:00,VALID,917.262,VALID,0,VALID,100,VALID,-0.101885,VALID,19.6711,VALID,31,VALID,0,
2008-12-05, 01:50:00,VALID,917.244,VALID,0,VALID,100,VALID,-0.135847,VALID,19.6916,VALID,31,VALID,0,
2008-12-05, 01:51:00,VALID,917.232,VALID,0,VALID,100,VALID,-0.118866,VALID,19.6848,VALID,31,VALID,0,
2008-12-05, 01:52:00,VALID,917.213,VALID,0,VALID,100,VALID,-0.0679233,VALID,19.6966,VALID,31,VALID,0,
2008-12-05, 01:53:00,VALID,917.209,VALID,0,VALID,100,VALID,0,VALID,19.7063,VALID,31,VALID,0,
2008-12-05, 01:54:00,VALID,917.183,VALID,0,VALID,100,VALID,0,VALID,19.6961,VALID,31,VALID,0,
2008-12-05, 01:55:00,VALID,917.161,VALID,0,VALID,100,VALID,0,VALID,19.6958,VALID,31,VALID,0,
2008-12-05, 01:56:00,VALID,917.143,VALID,0,VALID,100,VALID,0,VALID,19.709,VALID,31,VALID,0,
2008-12-05, 01:57:00,VALID,917.123,VALID,0,VALID,100,VALID,-0.0169808,VALID,19.6761,VALID,31,VALID,0,
2008-12-05, 01:58:00,VALID,917.103,VALID,0,VALID,100,VALID,-0.0169808,VALID,19.6704,VALID,31,VALID,0,
2008-12-05, 01:59:00,VALID,917.076,VALID,0,VALID,100,VALID,-0.0339617,VALID,19.6571,VALID,31,VALID,0,
2008-12-05, 02:00:00,VALID,917.061,VALID,0,VALID,100,VALID,-0.0169808,VALID,19.6444,VALID,31,VALID,0,
2008-12-05, 02:01:00,VALID,917.039,VALID,0,VALID,100,VALID,-0.0169808,VALID,19.6347,VALID,31,VALID,0,
2008-12-05, 02:02:00,VALID,917.03,VALID,0,VALID,100,VALID,-0.0509425,VALID,19.6119,VALID,31,VALID,0,
2008-12-05, 02:03:00,VALID,917.015,VALID,0,VALID,100,VALID,-0.0339617,VALID,19.5598,VALID,31,VALID,0,
2008-12-05, 02:04:00,VALID,917.014,VALID,0,VALID,100,VALID,0,VALID,19.5468,VALID,31,VALID,0,
2008-12-05, 02:05:00,VALID,916.995,VALID,0,VALID,100,VALID,-0.0509425,VALID,19.5341,VALID,31,VALID,0,
2008-12-05, 02:06:00,VALID,916.979,VALID,0,VALID,100,VALID,-0.0169808,VALID,19.5243,VALID,31,VALID,0,
2008-12-05, 02:07:00,VALID,916.962,VALID,0,VALID,100,VALID,-0.0339617,VALID,19.5211,VALID,31,VALID,0,
2008-12-05, 02:08:00,VALID,916.955,VALID,0,VALID,100,VALID,-0.101885,VALID,19.5278,VALID,31,VALID,0,
2008-12-05, 02:09:00,VALID,916.932,VALID,0,VALID,100,VALID,-0.0509425,VALID,19.5049,VALID,31,VALID,0,
2008-12-05, 02:10:00,VALID,916.903,VALID,0,VALID,100,VALID,-0.0339617,VALID,19.4981,VALID,31,VALID,0,
2008-12-05, 02:11:00,VALID,916.895,VALID,0,VALID,100,VALID,-0.0339617,VALID,19.5016,VALID,31,VALID,0,
2008-12-05, 02:12:00,VALID,916.88,VALID,0,VALID,100,VALID,-0.0849042,VALID,19.4989,VALID,31,VALID,0,
2008-12-05, 02:13:00,VALID,916.858,VALID,0,VALID,100,VALID,-0.0849042,VALID,19.4759,VALID,31,VALID,0,
2008-12-05, 02:14:00,VALID,916.846,VALID,0,VALID,100,VALID,-0.0679233,VALID,19.466,VALID,31,VALID,0,
2008-12-05, 02:15:00,VALID,916.835,VALID,0,VALID,100,VALID,-0.0679233,VALID,19.4859,VALID,31,VALID,0,
2008-12-05, 02:16:00,VALID,916.819,VALID,0,VALID,100,VALID,-0.0509425,VALID,19.5051,VALID,28,VALID,0,
2008-12-05, 02:17:00,VALID,916.806,VALID,0,VALID,100,VALID,-0.0169808,VALID,19.5209,VALID,23,VALID,0,
2008-12-05, 02:18:00,VALID,916.809,VALID,0,VALID,100,VALID,-0.0679233,VALID,19.5243,VALID,12,VALID,0,
2008-12-05, 02:19:00,VALID,916.793,VALID,0,VALID,100,VALID,-0.0509425,VALID,19.5443,VALID,10,VALID,0,
2008-12-05, 02:20:00,VALID,916.796,VALID,0,VALID,100,VALID,-0.0509425,VALID,19.5506,VALID,10,VALID,0,
2008-12-05, 02:21:00,VALID,916.774,VALID,0,VALID,100,VALID,-0.0509425,VALID,19.57,VALID,10,VALID,0,
2008-12-05, 02:22:00,VALID,916.769,VALID,0,VALID,100,VALID,-0.0339617,VALID,19.573,VALID,10,VALID,0,
2008-12-05, 02:23:00,VALID,916.763,VALID,0,VALID,100,VALID,-0.0339617,VALID,19.5862,VALID,10,VALID,0,
2008-12-05, 02:24:00,VALID,916.766,VALID,0,VALID,100,VALID,-0.0679233,VALID,19.5925,VALID,10,VALID,0,
2008-12-05, 02:25:00,VALID,916.762,VALID,0,VALID,100,VALID,-0.0849042,VALID,19.5925,VALID,10,VALID,0,
2008-12-05, 02:26:00,VALID,916.763,VALID,0,VALID,100,VALID,-0.0339617,VALID,19.5927,VALID,10,VALID,0,
2008-12-05, 02:27:00,VALID,916.747,VALID,0,VALID,100,VALID,-0.0679233,VALID,19.5892,VALID,10,VALID,0,
2008-12-05, 02:28:00,VALID,916.735,VALID,0,VALID,100,VALID,-0.0509425,VALID,19.602,VALID,10,VALID,0,
2008-12-05, 02:29:00,VALID,916.717,VALID,0,VALID,100,VALID,-0.0339617,VALID,19.606,VALID,10,VALID,0,
2008-12-05, 02:30:00,VALID,916.703,VALID,0,VALID,100,VALID,-0.0509425,VALID,19.5763,VALID,10,VALID,0,
2008-12-05, 02:31:00,VALID,916.688,VALID,0,VALID,100,VALID,-0.101885,VALID,19.59,VALID,10,VALID,0,
2008-12-05, 02:32:00,VALID,916.665,VALID,0,VALID,100,VALID,-0.0679233,VALID,19.5663,VALID,10,VALID,0,
2008-12-05, 02:33:00,VALID,916.655,VALID,0,VALID,100,VALID,-0.0679233,VALID,19.5827,VALID,10,VALID,0,
2008-12-05, 02:34:00,VALID,916.643,VALID,0,VALID,100,VALID,-0.101885,VALID,19.5995,VALID,10,VALID,0,
2008-12-05, 02:35:00,VALID,916.64,VALID,0,VALID,100,VALID,-0.0679233,VALID,19.6052,VALID,10,VALID,0,
2008-12-05, 02:36:00,VALID,916.633,VALID,0,VALID,100,VALID,-0.101885,VALID,19.6055,VALID,10,VALID,0,
2008-12-05, 02:37:00,VALID,916.624,VALID,0,VALID,100,VALID,-0.0339617,VALID,19.5987,VALID,10,VALID,0,
2008-12-05, 02:38:00,VALID,916.62,VALID,0,VALID,100,VALID,-0.0169808,VALID,19.593,VALID,10,VALID,0,
2008-12-05, 02:39:00,VALID,916.611,VALID,0,VALID,100,VALID,-0.0339617,VALID,19.563,VALID,10,VALID,0,
2008-12-05, 02:40:00,VALID,916.62,VALID,0,VALID,100,VALID,-0.0169808,VALID,19.5633,VALID,10,VALID,0,
2008-12-05, 02:41:00,VALID,916.611,VALID,0,VALID,100,VALID,-0.0169808,VALID,19.554,VALID,17,VALID,0,
2008-12-05, 02:42:00,VALID,916.6,VALID,0,VALID,100,VALID,-0.0509425,VALID,19.5705,VALID,26,VALID,0,
2008-12-05, 02:43:00,VALID,916.603,VALID,0,VALID,100,VALID,-0.0679233,VALID,19.5857,VALID,19,VALID,0,
2008-12-05, 02:44:00,VALID,916.597,VALID,0,VALID,100,VALID,-0.0849042,VALID,19.6189,VALID,13,VALID,0,
2008-12-05, 02:45:00,VALID,916.585,VALID,0,VALID,100,VALID,-0.0679233,VALID,19.6087,VALID,360,VALID,0,
2008-12-05, 02:46:00,VALID,916.579,VALID,0,VALID,100,VALID,-0.0509425,VALID,19.6149,INVALID,360,VALID,0,
2008-12-05, 02:47:00,VALID,916.557,VALID,0,VALID,100,VALID,-0.0849042,VALID,19.6152,INVALID,360,VALID,0,
2008-12-05, 02:48:00,VALID,916.539,VALID,0,VALID,100,VALID,-0.101885,VALID,19.6379,INVALID,360,VALID,0,
2008-12-05, 02:49:00,VALID,916.525,VALID,0,VALID,100,VALID,-0.101885,VALID,19.6481,VALID,305,VALID,0,
2008-12-05, 02:50:00,VALID,916.505,VALID,0,VALID,100,VALID,-0.0679233,VALID,19.6576,VALID,305,VALID,0,
2008-12-05, 02:51:00,VALID,916.489,VALID,0,VALID,100,VALID,-0.0679233,VALID,19.6803,VALID,305,VALID,0,
2008-12-05, 02:52:00,VALID,916.476,VALID,0,VALID,100,VALID,-0.0169808,VALID,19.6896,VALID,305,VALID,0,
2008-12-05, 02:53:00,VALID,916.459,VALID,0,VALID,100,VALID,0,VALID,19.7218,VALID,305,VALID,0,
2008-12-05, 02:54:00,VALID,916.456,VALID,0,VALID,100,VALID,0.0169808,VALID,19.7248,VALID,305,VALID,0,
2008-12-05, 02:55:00,VALID,916.454,VALID,0,VALID,100,VALID,0.0339617,VALID,19.7185,VALID,305,VALID,0,
2008-12-05, 02:56:00,VALID,916.447,VALID,0,VALID,100,VALID,0,VALID,19.7283,VALID,305,VALID,0,
2008-12-05, 02:57:00,VALID,916.442,VALID,0,VALID,100,VALID,0,VALID,19.7278,VALID,317,VALID,0,
2008-12-05, 02:58:00,VALID,916.43,VALID,0,VALID,100,VALID,0.0169808,VALID,19.7377,VALID,21,VALID,0,
2008-12-05, 02:59:00,VALID,916.406,VALID,0,VALID,100,VALID,0.0339617,VALID,19.7115,VALID,22,VALID,0.0561756,
2008-12-05, 03:00:00,VALID,916.397,VALID,0,VALID,100,VALID,0.0169808,VALID,19.6823,VALID,23,VALID,0.04375,
2008-12-05, 03:01:00,VALID,916.382,VALID,0,VALID,100,VALID,0.0509425,VALID,19.6758,VALID,18,VALID,0.0675223,
2008-12-05, 03:02:00,VALID,916.374,VALID,0,VALID,100,VALID,0.0509425,VALID,19.6691,VALID,23,VALID,0,
2008-12-05, 03:03:00,VALID,916.378,VALID,0,VALID,100,VALID,0.0679233,VALID,19.6559,VALID,15,VALID,0,
2008-12-05, 03:04:00,VALID,916.366,VALID,0,VALID,100,VALID,0.0339617,VALID,19.6796,VALID,13,VALID,0.0292969,
2008-12-05, 03:05:00,VALID,916.353,VALID,0,VALID,100,VALID,0.0339617,VALID,19.6661,VALID,12,VALID,0,
2008-12-05, 03:06:00,VALID,916.358,VALID,0,VALID,100,VALID,0.0339617,VALID,19.6531,VALID,14,VALID,0,
2008-12-05, 03:07:00,VALID,916.372,VALID,0,VALID,100,VALID,-0.0339617,VALID,19.6601,VALID,14,VALID,0,
2008-12-05, 03:08:00,VALID,916.363,VALID,0,VALID,100,VALID,-0.0169808,VALID,19.6506,VALID,14,VALID,0,
2008-12-05, 03:09:00,VALID,916.357,VALID,0,VALID,100,VALID,-0.0169808,VALID,19.6539,VALID,14,VALID,0,
2008-12-05, 03:10:00,VALID,916.362,VALID,0,VALID,100,VALID,-0.0339617,VALID,19.6636,VALID,14,VALID,0,
2008-12-05, 03:11:00,VALID,916.349,VALID,0,VALID,100,VALID,-0.0339617,VALID,19.6626,VALID,12,VALID,0,
2008-12-05, 03:12:00,VALID,916.347,VALID,0,VALID,100,VALID,-0.0169808,VALID,19.6634,VALID,13,VALID,0,
2008-12-05, 03:13:00,VALID,916.341,VALID,0,VALID,100,VALID,0,VALID,19.6669,VALID,22,VALID,0,
2008-12-05, 03:14:00,VALID,916.338,VALID,0,VALID,100,VALID,0.0169808,VALID,19.6766,VALID,24,VALID,0,
2008-12-05, 03:15:00,VALID,916.329,VALID,0,VALID,100,VALID,0,VALID,19.6766,VALID,16,VALID,0,
2008-12-05, 03:16:00,VALID,916.327,VALID,0,VALID,100,VALID,0,VALID,19.6831,VALID,16,VALID,0.0697545,
2008-12-05, 03:17:00,VALID,916.317,VALID,0,VALID,100,VALID,0.0169808,VALID,19.6726,VALID,16,VALID,0,
2008-12-05, 03:18:00,VALID,916.32,VALID,0,VALID,100,VALID,0.0169808,VALID,19.6926,VALID,16,VALID,0,
2008-12-05, 03:19:00,VALID,916.32,VALID,0,VALID,100,VALID,-0.0169808,VALID,19.6926,VALID,12,VALID,0,
2008-12-05, 03:20:00,VALID,916.322,VALID,0,VALID,100,VALID,0.0169808,VALID,19.6823,VALID,10,VALID,0,
2008-12-05, 03:21:00,VALID,916.324,VALID,0,VALID,100,VALID,0,VALID,19.6891,VALID,12,VALID,0,
2008-12-05, 03:22:00,VALID,916.337,VALID,0,VALID,100,VALID,-0.0339617,VALID,19.7001,VALID,10,VALID,0.072218,
2008-12-05, 03:23:00,VALID,916.345,VALID,0,VALID,100,VALID,-0.101885,VALID,19.6968,VALID,356,VALID,0.164825,
2008-12-05, 03:24:00,VALID,916.367,VALID,0,VALID,100,VALID,-0.118866,VALID,19.717,VALID,341,VALID,0,
2008-12-05, 03:25:00,VALID,916.364,VALID,0,VALID,100,VALID,-0.118866,VALID,19.714,VALID,323,VALID,0,
2008-12-05, 03:26:00,VALID,916.361,VALID,0,VALID,100,VALID,-0.118866,VALID,19.737,VALID,343,VALID,0,
2008-12-05, 03:27:00,VALID,916.369,VALID,0,VALID,100,VALID,-0.118866,VALID,19.733,VALID,16,VALID,0,
2008-12-05, 03:28:00,VALID,916.372,VALID,0,VALID,100,VALID,-0.118866,VALID,19.7427,VALID,360,VALID,0.00381541,
2008-12-05, 03:29:00,VALID,916.368,VALID,0,VALID,100,VALID,-0.101885,VALID,19.7495,VALID,358,VALID,0,
2008-12-05, 03:30:00,VALID,916.376,VALID,0,VALID,100,VALID,-0.101885,VALID,19.7592,VALID,358,VALID,0,
2008-12-05, 03:31:00,VALID,916.372,VALID,0,VALID,100,VALID,-0.118866,VALID,19.7625,VALID,355,VALID,0,
2008-12-05, 03:32:00,VALID,916.393,VALID,0,VALID,100,VALID,-0.118866,VALID,19.7689,INVALID,360,VALID,0,
2008-12-05, 03:33:00,VALID,916.396,VALID,0,VALID,100,VALID,-0.101885,VALID,19.7754,INVALID,360,VALID,0,
2008-12-05, 03:34:00,VALID,916.416,VALID,0,VALID,100,VALID,-0.118866,VALID,19.7749,INVALID,360,VALID,0,
2008-12-05, 03:35:00,VALID,916.41,VALID,0,VALID,100,VALID,-0.0849042,VALID,19.7717,VALID,338,VALID,0,
2008-12-05, 03:36:00,VALID,916.419,VALID,0,VALID,100,VALID,-0.101885,VALID,19.8239,VALID,338,VALID,0,
2008-12-05, 03:37:00,VALID,916.41,VALID,0,VALID,100,VALID,-0.0339617,VALID,19.8585,VALID,355,VALID,0,
2008-12-05, 03:38:00,VALID,916.412,VALID,0,VALID,100,VALID,0,VALID,19.8478,VALID,23,VALID,0,
2008-12-05, 03:39:00,VALID,916.409,VALID,0,VALID,100,VALID,-0.0169808,VALID,19.8615,VALID,52,VALID,0,
2008-12-05, 03:40:00,VALID,916.418,VALID,0,VALID,100,VALID,0,VALID,19.8613,VALID,39,VALID,0.0450149,
2008-12-05, 03:41:00,VALID,916.418,VALID,0,VALID,100,VALID,-0.0169808,VALID,19.8578,VALID,29,VALID,0.550145,
2008-12-05, 03:42:00,VALID,916.421,VALID,0,VALID,100,VALID,0,VALID,19.8583,VALID,3,VALID,1.03434,
2008-12-05, 03:43:00,VALID,916.432,VALID,0,VALID,100,VALID,-0.0169808,VALID,19.8288,VALID,323,VALID,0.0282012,
2008-12-05, 03:44:00,VALID,916.429,VALID,0,VALID,100,VALID,0,VALID,19.8156,VALID,8,VALID,0,
2008-12-05, 03:45:00,VALID,916.449,VALID,0,VALID,100,VALID,0,VALID,19.8226,VALID,8,VALID,0,
2008-12-05, 03:46:00,VALID,916.445,VALID,0,VALID,100,VALID,0,VALID,19.8386,VALID,320,VALID,0,
2008-12-05, 03:47:00,VALID,916.447,VALID,0,VALID,100,VALID,0,VALID,19.8421,VALID,229,VALID,0,
2008-12-05, 03:48:00,VALID,916.445,VALID,0,VALID,100,VALID,0,VALID,19.8286,VALID,225,VALID,0,
2008-12-05, 03:49:00,VALID,916.45,VALID,0,VALID,100,VALID,0,VALID,19.8253,VALID,282,VALID,0,
2008-12-05, 03:50:00,VALID,916.464,VALID,0,VALID,100,VALID,0.0169808,VALID,19.8124,VALID,282,VALID,0,
2008-12-05, 03:51:00,VALID,916.476,VALID,0,VALID,100,VALID,-0.0169808,VALID,19.8094,VALID,318,VALID,0,
2008-12-05, 03:52:00,VALID,916.483,VALID,0,VALID,100,VALID,-0.0509425,VALID,19.8096,VALID,67,VALID,0,